Location: Caixon
(43.4106°N, 0.0273°E)
Time: 10:09:12
(UTC+00:00)

Cosmos 1697 Rocket - Visible Passes

Search period start: 22 May 2022 00:00
Search period end: 01 June 2022 00:00
Orbit: 831 x 844 km, 71.0° (Epoch: 22 May)

Date Brightness Start Highest point End Pass type
(mag) Time Alt. Az. Time Alt. Az. Time Alt. Az.
22 May 3.6 20:03:26 10° SSE 20:08:10 28° ESE 20:12:56 10° NE visible
22 May 3.8 21:46:29 10° SW 21:51:53 45° WNW 21:57:19 10° NNE visible
23 May 3.7 21:30:12 10° SW 21:35:39 48° WNW 21:41:08 10° NNE visible
24 May 3.6 21:13:55 10° SW 21:19:25 51° WNW 21:24:57 10° NNE visible
24 May 5.8 23:03:47 10° NW 23:04:49 10° NW 23:05:50 10° NNW visible
25 May 3.5 20:57:39 10° SW 21:03:11 55° WNW 21:08:46 10° NNE visible
25 May 5.8 22:46:54 10° NW 22:48:30 11° NW 22:50:07 10° NNW visible
26 May 3.4 20:41:23 10° SW 20:46:58 59° WNW 20:52:34 10° NNE visible
26 May 5.8 22:30:11 10° WNW 22:32:12 12° NW 22:34:14 10° NNW visible
27 May 5.9 03:51:12 10° N 03:54:28 15° NE 03:57:43 10° E visible
27 May 3.3 20:25:08 10° SW 20:30:45 63° WNW 20:36:23 10° NNE visible
27 May 5.8 22:13:33 10° WNW 22:15:54 13° NW 22:18:16 10° NNW visible
28 May 6.0 03:35:08 10° N 03:38:11 15° NE 03:41:13 10° ENE visible
28 May 3.2 20:08:53 10° SW 20:14:31 67° WNW 20:20:11 10° NNE visible
28 May 5.8 21:56:57 10° WNW 21:59:37 13° NW 22:02:17 10° NNW visible
29 May 6.0 03:19:05 10° NNE 03:21:53 14° NE 03:24:41 10° ENE visible
29 May 5.8 21:40:24 10° WNW 21:43:19 14° NW 21:46:15 10° NNW visible
30 May 6.1 03:03:04 10° NNE 03:05:35 13° NE 03:08:07 10° ENE visible
30 May 5.8 21:23:53 10° WNW 21:27:02 15° NW 21:30:12 10° N visible
31 May 6.3 02:47:06 10° NNE 02:49:18 12° NE 02:51:29 10° ENE visible
31 May 5.9 21:07:22 10° W 21:10:44 16° NW 21:14:08 10° N visible
